Location: Stanford
(52.2833°N, 2.4333°W)
Time: 02:19:09
(UTC+00:00)

Okean-O - Pass Details

Date: 22 January 2021
Orbit: 638 x 641 km, 98.2° (Epoch: 28 February)

Event Time Altitude Azimuth Distance (km) Brightness Sun altitude
Rises 17:19:33 0° 122° (ESE) 2,943 5.7 -6.3°
Reaches altitude 10° 17:22:10 10° 107° (ESE) 2,038 4.8 -6.7°
Maximum altitude 17:25:28 21° 58° (ENE) 1,449 3.9 -7.2°
Drops below altitude 10° 17:28:47 10° 10° (N) 2,048 4.9 -7.6°
Sets 17:31:25 0° 355° (N) 2,962 5.9 -8.0°
